Time,TemperatureF,DewpointF,PressureIn,WindDirection,WindDirectionDegrees,WindSpeedMPH,WindSpeedGustMPH,Humidity,HourlyPrecipIn,Conditions,Clouds,dailyrainin,SoftwareType,DateUTC
2013-04-28 00:12:00,43.0,28.0,-100.00,SW,235,22.0,27.0,55,-99.99,,,0.00,,2013-04-28 06:12:00,
2013-04-28 00:21:00,43.0,28.0,-100.00,SW,235,22.0,27.0,55,-99.99,,,0.00,,2013-04-28 06:21:00,
2013-04-28 01:01:00,41.0,30.0,-100.00,SW,230,19.0,27.0,64,-99.99,,,0.00,,2013-04-28 07:01:00,
2013-04-28 01:11:00,42.0,29.0,-100.00,WSW,240,17.0,26.0,61,-99.99,,,0.00,,2013-04-28 07:11:00,
2013-04-28 01:21:00,42.0,29.0,-100.00,WSW,240,17.0,26.0,61,-99.99,,,0.00,,2013-04-28 07:21:00,
2013-04-28 01:31:00,41.0,30.0,-100.00,SW,230,19.0,27.0,64,-99.99,,,0.00,,2013-04-28 07:31:00,
2013-04-28 01:42:00,41.0,30.0,-100.00,SW,230,19.0,27.0,64,-99.99,,,0.00,,2013-04-28 07:42:00,
2013-04-28 01:52:00,41.0,30.0,-100.00,SW,230,19.0,27.0,64,-99.99,,,0.00,,2013-04-28 07:52:00,
2013-04-28 02:01:00,40.0,29.0,-100.00,SW,215,24.0,40.0,64,-99.99,,,0.00,,2013-04-28 08:01:00,
2013-04-28 02:11:00,41.0,29.0,-100.00,SW,215,22.0,35.0,64,-99.99,,,0.00,,2013-04-28 08:11:00,
2013-04-28 02:21:00,41.0,29.0,-100.00,SW,215,22.0,35.0,64,-99.99,,,0.00,,2013-04-28 08:21:00,
2013-04-28 02:32:00,40.0,29.0,-100.00,SW,215,24.0,40.0,64,-99.99,,,0.00,,2013-04-28 08:32:00,
2013-04-28 02:42:00,40.0,29.0,-100.00,SW,215,24.0,40.0,64,-99.99,,,0.00,,2013-04-28 08:42:00,
2013-04-28 02:52:00,40.0,29.0,-100.00,SW,215,24.0,40.0,64,-99.99,,,0.00,,2013-04-28 08:52:00,
2013-04-28 03:01:00,40.0,28.0,-100.00,West,260,14.0,20.0,61,-99.99,,,0.00,,2013-04-28 09:01:00,
2013-04-28 03:11:00,40.0,28.0,-100.00,WSW,245,12.0,25.0,63,-99.99,,,0.00,,2013-04-28 09:11:00,
2013-04-28 03:21:00,40.0,28.0,-100.00,WSW,245,12.0,25.0,63,-99.99,,,0.00,,2013-04-28 09:21:00,
2013-04-28 03:32:00,40.0,28.0,-100.00,West,260,14.0,20.0,61,-99.99,,,0.00,,2013-04-28 09:32:00,
2013-04-28 03:42:00,40.0,28.0,-100.00,West,260,14.0,20.0,61,-99.99,,,0.00,,2013-04-28 09:42:00,
2013-04-28 03:53:00,40.0,28.0,-100.00,West,260,14.0,20.0,61,-99.99,,,0.00,,2013-04-28 09:53:00,
2013-04-28 04:01:00,39.0,28.0,-100.00,WSW,240,11.0,13.0,65,-99.99,,,0.00,,2013-04-28 10:01:00,
2013-04-28 04:12:00,39.0,28.0,-100.00,SW,235,15.0,24.0,63,-99.99,,,0.00,,2013-04-28 10:12:00,
2013-04-28 04:22:00,39.0,28.0,-100.00,SW,235,15.0,24.0,63,-99.99,,,0.00,,2013-04-28 10:22:00,
2013-04-28 04:32:00,39.0,28.0,-100.00,WSW,240,11.0,13.0,65,-99.99,,,0.00,,2013-04-28 10:32:00,
2013-04-28 04:42:00,39.0,28.0,-100.00,WSW,240,11.0,13.0,65,-99.99,,,0.00,,2013-04-28 10:42:00,
2013-04-28 04:52:00,39.0,28.0,-100.00,WSW,240,11.0,13.0,65,-99.99,,,0.00,,2013-04-28 10:52:00,
2013-04-28 05:00:00,38.0,29.0,-100.00,SW,235,9.0,13.0,69,-99.99,,,0.00,,2013-04-28 11:00:00,
2013-04-28 05:11:00,39.0,28.0,-100.00,SW,235,16.0,21.0,66,-99.99,,,0.00,,2013-04-28 11:11:00,
2013-04-28 05:22:00,39.0,28.0,-100.00,SW,235,16.0,21.0,66,-99.99,,,0.00,,2013-04-28 11:22:00,
2013-04-28 05:32:00,38.0,29.0,-100.00,SW,235,9.0,13.0,69,-99.99,,,0.00,,2013-04-28 11:32:00,
2013-04-28 05:42:00,38.0,29.0,-100.00,SW,235,9.0,13.0,69,-99.99,,,0.00,,2013-04-28 11:42:00,
2013-04-28 05:52:00,38.0,29.0,-100.00,SW,235,9.0,13.0,69,-99.99,,,0.00,,2013-04-28 11:52:00,
2013-04-28 06:01:00,37.0,29.0,-100.00,SW,235,5.0,8.0,73,-99.99,,,0.00,,2013-04-28 12:01:00,
2013-04-28 06:11:00,37.0,29.0,-100.00,WSW,245,8.0,11.0,72,-99.99,,,0.00,,2013-04-28 12:11:00,
2013-04-28 06:21:00,37.0,29.0,-100.00,WSW,245,8.0,11.0,72,-99.99,,,0.00,,2013-04-28 12:21:00,
2013-04-28 06:32:00,37.0,29.0,-100.00,SW,235,5.0,8.0,73,-99.99,,,0.00,,2013-04-28 12:32:00,
2013-04-28 06:42:00,37.0,29.0,-100.00,SW,235,5.0,8.0,73,-99.99,,,0.00,,2013-04-28 12:42:00,
2013-04-28 06:52:00,37.0,29.0,-100.00,SW,235,5.0,8.0,73,-99.99,,,0.00,,2013-04-28 12:52:00,
2013-04-28 07:11:00,38.0,29.0,-100.00,SW,215,6.0,8.0,70,-99.99,,,0.00,,2013-04-28 13:11:00,
2013-04-28 07:21:00,38.0,29.0,-100.00,SW,215,6.0,8.0,70,-99.99,,,0.00,,2013-04-28 13:21:00,
2013-04-28 07:31:00,38.0,29.0,-100.00,SW,235,9.0,12.0,70,-99.99,,,0.00,,2013-04-28 13:31:00,
2013-04-28 07:42:00,38.0,29.0,-100.00,SW,235,9.0,12.0,70,-99.99,,,0.00,,2013-04-28 13:42:00,
2013-04-28 07:52:00,38.0,29.0,-100.00,WSW,240,11.0,13.0,71,-99.99,,,0.00,,2013-04-28 13:52:00,
2013-04-28 08:01:00,38.0,29.0,-100.00,WSW,240,11.0,13.0,71,-99.99,,,0.00,,2013-04-28 14:01:00,
2013-04-28 08:11:00,38.0,29.0,-100.00,SW,230,11.0,14.0,71,-99.99,,,0.00,,2013-04-28 14:11:00,
2013-04-28 08:21:00,38.0,29.0,-100.00,SW,230,11.0,14.0,71,-99.99,,,0.00,,2013-04-28 14:21:00,
2013-04-28 08:31:00,38.0,29.0,-100.00,SW,225,12.0,15.0,70,-99.99,,,0.00,,2013-04-28 14:31:00,
2013-04-28 08:41:00,38.0,29.0,-100.00,SW,225,12.0,15.0,70,-99.99,,,0.00,,2013-04-28 14:41:00,
2013-04-28 08:52:00,38.0,29.0,-100.00,SW,230,10.0,12.0,70,-99.99,,,0.00,,2013-04-28 14:52:00,
2013-04-28 09:00:00,38.0,29.0,-100.00,WSW,250,8.0,9.0,71,-99.99,,,0.00,,2013-04-28 15:00:00,
2013-04-28 09:01:00,38.0,29.0,-100.00,SW,230,10.0,12.0,70,-99.99,,,0.00,,2013-04-28 15:01:00,
2013-04-28 09:12:00,38.0,29.0,-100.00,SW,230,10.0,12.0,70,-99.99,,,0.00,,2013-04-28 15:12:00,
2013-04-28 09:21:00,38.0,29.0,-100.00,SW,230,10.0,12.0,70,-99.99,,,0.00,,2013-04-28 15:21:00,
2013-04-28 09:32:00,38.0,29.0,-100.00,WSW,250,8.0,9.0,71,-99.99,,,0.00,,2013-04-28 15:32:00,
2013-04-28 09:42:00,38.0,29.0,-100.00,WSW,250,8.0,9.0,71,-99.99,,,0.00,,2013-04-28 15:42:00,
2013-04-28 09:53:00,38.0,29.0,-100.00,WSW,250,8.0,9.0,71,-99.99,,,0.00,,2013-04-28 15:53:00,
2013-04-28 10:13:00,39.0,29.0,-100.00,WSW,240,9.0,12.0,67,-99.99,,,0.00,,2013-04-28 16:13:00,
2013-04-28 10:23:00,39.0,29.0,-100.00,WSW,240,9.0,12.0,67,-99.99,,,0.00,,2013-04-28 16:23:00,
2013-04-28 10:32:00,39.0,29.0,-100.00,WSW,245,12.0,16.0,66,-99.99,,,0.00,,2013-04-28 16:32:00,
2013-04-28 10:42:00,39.0,29.0,-100.00,WSW,245,12.0,16.0,66,-99.99,,,0.00,,2013-04-28 16:42:00,
2013-04-28 10:52:00,38.0,29.0,-100.00,West,270,12.0,17.0,68,-99.99,,,0.00,,2013-04-28 16:52:00,
2013-04-28 11:02:00,38.0,29.0,-100.00,West,270,12.0,17.0,68,-99.99,,,0.00,,2013-04-28 17:02:00,
2013-04-28 11:12:00,38.0,29.0,-100.00,West,270,12.0,17.0,68,-99.99,,,0.00,,2013-04-28 17:12:00,
2013-04-28 11:21:00,38.0,29.0,-100.00,West,270,12.0,17.0,68,-99.99,,,0.00,,2013-04-28 17:21:00,
2013-04-28 11:32:00,40.0,31.0,-100.00,South,190,6.0,8.0,70,-99.99,,,-99.99,,2013-04-28 17:32:00,
2013-04-28 11:42:00,40.0,31.0,-100.00,South,190,6.0,8.0,70,-99.99,,,-99.99,,2013-04-28 17:42:00,
2013-04-28 11:51:00,38.0,29.0,-100.00,SSW,205,17.0,26.0,69,-99.99,,,0.00,,2013-04-28 17:51:00,
2013-04-28 12:02:00,38.0,29.0,-100.00,SSW,205,17.0,26.0,69,-99.99,,,0.00,,2013-04-28 18:02:00,
2013-04-28 12:12:00,40.0,30.0,-100.00,SSW,210,12.0,17.0,69,-99.99,,,0.00,,2013-04-28 18:12:00,
2013-04-28 12:22:00,40.0,30.0,-100.00,SSW,210,12.0,17.0,69,-99.99,,,0.00,,2013-04-28 18:22:00,
2013-04-28 12:32:00,41.0,29.0,-100.00,SW,225,11.0,17.0,64,-99.99,,,-99.99,,2013-04-28 18:32:00,
2013-04-28 12:42:00,41.0,29.0,-100.00,SW,225,11.0,17.0,64,-99.99,,,-99.99,,2013-04-28 18:42:00,
2013-04-28 12:52:00,43.0,28.0,-100.00,SSW,200,17.0,24.0,54,-99.99,,,0.00,,2013-04-28 18:52:00,
2013-04-28 13:02:00,43.0,28.0,-100.00,SSW,200,17.0,24.0,54,-99.99,,,0.00,,2013-04-28 19:02:00,
2013-04-28 13:11:00,41.0,30.0,-100.00,SW,215,19.0,24.0,64,-99.99,,,0.00,,2013-04-28 19:11:00,
2013-04-28 13:21:00,41.0,30.0,-100.00,SW,215,19.0,24.0,64,-99.99,,,0.00,,2013-04-28 19:21:00,
2013-04-28 13:31:00,43.0,24.0,-100.00,SW,215,19.0,24.0,47,-99.99,,,0.00,,2013-04-28 19:31:00,
2013-04-28 13:41:00,43.0,24.0,-100.00,SW,215,19.0,24.0,47,-99.99,,,0.00,,2013-04-28 19:41:00,
2013-04-28 13:52:00,43.0,24.0,-100.00,SW,225,17.0,27.0,47,-99.99,,,0.00,,2013-04-28 19:52:00,
2013-04-28 14:00:00,43.0,24.0,-100.00,SW,230,12.0,20.0,47,-99.99,,,0.00,,2013-04-28 20:00:00,
2013-04-28 14:01:00,43.0,24.0,-100.00,SW,225,17.0,27.0,47,-99.99,,,0.00,,2013-04-28 20:01:00,
2013-04-28 14:11:00,42.0,24.0,-100.00,WSW,240,14.0,21.0,49,-99.99,,,0.00,,2013-04-28 20:11:00,
2013-04-28 14:22:00,42.0,24.0,-100.00,WSW,240,14.0,21.0,49,-99.99,,,0.00,,2013-04-28 20:22:00,
2013-04-28 14:32:00,43.0,24.0,-100.00,SW,230,12.0,20.0,47,-99.99,,,0.00,,2013-04-28 20:32:00,
2013-04-28 14:41:00,43.0,24.0,-100.00,SW,230,12.0,20.0,47,-99.99,,,0.00,,2013-04-28 20:41:00,
2013-04-28 14:51:00,43.0,24.0,-100.00,SW,230,12.0,20.0,47,-99.99,,,0.00,,2013-04-28 20:51:00,
2013-04-28 15:00:00,44.0,23.0,-100.00,SW,220,17.0,25.0,43,-99.99,,,0.00,,2013-04-28 21:00:00,
2013-04-28 15:11:00,42.0,23.0,-100.00,WSW,255,16.0,24.0,46,-99.99,,,0.00,,2013-04-28 21:11:00,
2013-04-28 15:22:00,42.0,23.0,-100.00,WSW,255,16.0,24.0,46,-99.99,,,0.00,,2013-04-28 21:22:00,
2013-04-28 15:32:00,44.0,23.0,-100.00,SW,220,17.0,25.0,43,-99.99,,,0.00,,2013-04-28 21:32:00,
2013-04-28 15:42:00,44.0,23.0,-100.00,SW,220,17.0,25.0,43,-99.99,,,0.00,,2013-04-28 21:42:00,
2013-04-28 15:52:00,44.0,23.0,-100.00,SW,220,17.0,25.0,43,-99.99,,,0.00,,2013-04-28 21:52:00,
2013-04-28 16:12:00,43.0,23.0,-100.00,WSW,240,13.0,24.0,45,-99.99,,,0.00,,2013-04-28 22:12:00,
2013-04-28 16:22:00,43.0,23.0,-100.00,WSW,240,13.0,24.0,45,-99.99,,,0.00,,2013-04-28 22:22:00,
2013-04-28 16:33:00,43.0,24.0,-100.00,WSW,250,15.0,24.0,47,-99.99,,,-99.99,,2013-04-28 22:33:00,
2013-04-28 16:52:00,43.0,24.0,-100.00,WSW,245,21.0,25.0,46,-99.99,,,0.00,,2013-04-28 22:52:00,
2013-04-28 17:00:00,43.0,25.0,-100.00,WSW,250,14.0,26.0,48,-99.99,,,0.00,,2013-04-28 23:00:00,
2013-04-28 17:02:00,43.0,24.0,-100.00,WSW,245,21.0,25.0,46,-99.99,,,0.00,,2013-04-28 23:02:00,
2013-04-28 17:12:00,43.0,22.0,-100.00,WSW,255,18.0,27.0,43,-99.99,,,0.00,,2013-04-28 23:12:00,
2013-04-28 17:21:00,43.0,22.0,-100.00,WSW,255,18.0,27.0,43,-99.99,,,0.00,,2013-04-28 23:21:00,
2013-04-28 17:30:00,44.0,23.0,-100.00,SW,235,14.0,24.0,42,-99.99,,,0.00,,2013-04-28 23:30:00,
2013-04-28 17:32:00,43.0,25.0,-100.00,WSW,250,14.0,26.0,48,-99.99,,,0.00,,2013-04-28 23:32:00,
2013-04-28 17:41:00,43.0,25.0,-100.00,WSW,250,14.0,26.0,48,-99.99,,,0.00,,2013-04-28 23:41:00,
2013-04-28 17:51:00,43.0,25.0,-100.00,WSW,250,14.0,26.0,48,-99.99,,,0.00,,2013-04-28 23:51:00,
2013-04-28 18:00:00,44.0,26.0,-100.00,WNW,295,13.0,18.0,50,-99.99,,,0.00,,2013-04-29 00:00:00,
2013-04-28 18:11:00,44.0,23.0,-100.00,SW,235,14.0,24.0,42,-99.99,,,0.00,,2013-04-29 00:11:00,
2013-04-28 18:22:00,44.0,23.0,-100.00,SW,235,14.0,24.0,42,-99.99,,,0.00,,2013-04-29 00:22:00,
2013-04-28 18:52:00,44.0,26.0,-100.00,WNW,295,13.0,18.0,50,-99.99,,,0.00,,2013-04-29 00:52:00,
2013-04-28 19:01:00,42.0,27.0,-100.00,West,265,8.0,18.0,54,-99.99,,,0.00,,2013-04-29 01:01:00,
2013-04-28 19:12:00,43.0,24.0,-100.00,SW,230,17.0,21.0,48,-99.99,,,0.00,,2013-04-29 01:12:00,
2013-04-28 19:21:00,43.0,24.0,-100.00,SW,230,17.0,21.0,48,-99.99,,,0.00,,2013-04-29 01:21:00,
2013-04-28 19:32:00,42.0,27.0,-100.00,West,265,8.0,18.0,54,-99.99,,,0.00,,2013-04-29 01:32:00,
2013-04-28 19:42:00,42.0,27.0,-100.00,West,265,8.0,18.0,54,-99.99,,,0.00,,2013-04-29 01:42:00,
2013-04-28 19:52:00,42.0,27.0,-100.00,West,265,8.0,18.0,54,-99.99,,,0.00,,2013-04-29 01:52:00,
2013-04-28 20:11:00,42.0,26.0,-100.00,SW,235,15.0,21.0,53,-99.99,,,0.00,,2013-04-29 02:11:00,
2013-04-28 20:21:00,42.0,26.0,-100.00,SW,235,15.0,21.0,53,-99.99,,,0.00,,2013-04-29 02:21:00,
2013-04-28 20:31:00,41.0,25.0,-100.00,WSW,245,15.0,20.0,51,-99.99,,,0.00,,2013-04-29 02:31:00,
2013-04-28 20:41:00,41.0,25.0,-100.00,WSW,245,15.0,20.0,51,-99.99,,,0.00,,2013-04-29 02:41:00,
2013-04-28 20:51:00,41.0,24.0,-100.00,West,260,12.0,22.0,52,-99.99,,,0.00,,2013-04-29 02:51:00,
2013-04-28 21:01:00,41.0,24.0,-100.00,West,260,12.0,22.0,52,-99.99,,,0.00,,2013-04-29 03:01:00,
2013-04-28 21:12:00,40.0,23.0,-100.00,West,265,13.0,22.0,49,-99.99,,,0.00,,2013-04-29 03:12:00,
2013-04-28 21:21:00,40.0,23.0,-100.00,West,265,13.0,22.0,49,-99.99,,,0.00,,2013-04-29 03:21:00,
2013-04-28 21:33:00,40.0,24.0,-100.00,West,260,19.0,26.0,52,-99.99,,,0.00,,2013-04-29 03:33:00,
2013-04-28 21:42:00,40.0,24.0,-100.00,West,260,19.0,26.0,52,-99.99,,,0.00,,2013-04-29 03:42:00,
2013-04-28 21:52:00,40.0,24.0,-100.00,West,260,19.0,26.0,52,-99.99,,,0.00,,2013-04-29 03:52:00,
2013-04-28 22:01:00,39.0,25.0,-100.00,West,265,11.0,15.0,58,-99.99,,,0.00,,2013-04-29 04:01:00,
2013-04-28 22:13:00,40.0,24.0,-100.00,West,270,14.0,21.0,53,-99.99,,,0.00,,2013-04-29 04:13:00,
2013-04-28 22:23:00,40.0,24.0,-100.00,West,270,14.0,21.0,53,-99.99,,,0.00,,2013-04-29 04:23:00,
2013-04-28 22:33:00,39.0,25.0,-100.00,West,265,11.0,15.0,58,-99.99,,,0.00,,2013-04-29 04:33:00,
2013-04-28 22:43:00,39.0,25.0,-100.00,West,265,11.0,15.0,58,-99.99,,,0.00,,2013-04-29 04:43:00,
2013-04-28 22:52:00,39.0,25.0,-100.00,West,265,11.0,15.0,58,-99.99,,,0.00,,2013-04-29 04:52:00,
2013-04-28 23:00:00,38.0,25.0,-100.00,West,280,12.0,16.0,57,-99.99,,,0.00,,2013-04-29 05:00:00,
2013-04-28 23:12:00,38.0,26.0,-100.00,WSW,255,12.0,17.0,61,-99.99,,,0.00,,2013-04-29 05:12:00,
2013-04-28 23:22:00,38.0,26.0,-100.00,WSW,255,12.0,17.0,61,-99.99,,,0.00,,2013-04-29 05:22:00,
2013-04-28 23:30:00,38.0,24.0,-100.00,WNW,290,9.0,14.0,58,-99.99,,,0.00,,2013-04-29 05:30:00,
2013-04-28 23:32:00,38.0,25.0,-100.00,West,280,12.0,16.0,57,-99.99,,,0.00,,2013-04-29 05:32:00,
2013-04-28 23:42:00,38.0,25.0,-100.00,West,280,12.0,16.0,57,-99.99,,,0.00,,2013-04-29 05:42:00,
2013-04-28 23:52:00,38.0,25.0,-100.00,West,280,12.0,16.0,57,-99.99,,,0.00,,2013-04-29 05:52:00,